This is the latest recevied weather packets stored in our database for station/object KJ4YLO. If no packets are shown the sender has not sent any weather packets the latest 10 day(s).
| Time | Temp. | Humidity | Pressure | Rain* | Wind** | Luminosity | Snow |
|---|---|---|---|---|---|---|---|
| 1777648080 | 16.11° C | 47% | 1017.3 hPa | 0 mm | - | 220 W/m² | - |
| 1777647777 | 16.67° C | 46% | 1017.3 hPa | 0 mm | - | 173 W/m² | - |
| 1777647472 | 16.11° C | 45% | 1016.9 hPa | 0 mm | - | 95 W/m² | - |
| 1777647170 | 16.11° C | 46% | 1016.9 hPa | 0 mm | - | 171 W/m² | - |
| 1777646866 | 15.56° C | 45% | 1016.6 hPa | 0 mm | - | 128 W/m² | - |
| 1777646562 | 16.11° C | 48% | 1016.6 hPa | 0 mm | - | 91 W/m² | - |
| 1777646259 | 16.11° C | 49% | 1016.6 hPa | 0 mm | - | 76 W/m² | - |
| 1777645955 | 15.56° C | 46% | 1016.6 hPa | 0 mm | - | 62 W/m² | - |
| 1777645652 | 15.56° C | 51% | 1016.6 hPa | 0 mm | - | 130 W/m² | - |
| 1777645348 | 15.56° C | 50% | 1016.6 hPa | 0 mm | - | 59 W/m² | - |
| 1777645038 | 15.56° C | 49% | 1016.3 hPa | 0 mm | - | 71 W/m² | - |
| 1777644736 | 15.56° C | 52% | 1016.3 hPa | 0 mm | - | 93 W/m² | - |
| 1777644433 | 15.56° C | 51% | 1016.3 hPa | 0 mm | - | 267 W/m² | - |
| 1777644129 | 15.56° C | 57% | 1016.3 hPa | 0 mm | - | 103 W/m² | - |
| 1777643825 | 15.56° C | 53% | 1016.3 hPa | 0 mm | - | 119 W/m² | - |
| 1777643523 | 15° C | 54% | 1016.3 hPa | 0 mm | - | 122 W/m² | - |
| 1777643220 | 15° C | 54% | 1016.6 hPa | 0 mm | - | 101 W/m² | - |
| 1777642916 | 14.44° C | 56% | 1016.3 hPa | 0 mm | - | 86 W/m² | - |
| 1777642613 | 14.44° C | 53% | 1016.3 hPa | 0 mm | - | 108 W/m² | - |
| 1777642310 | 15° C | 54% | 1016.3 hPa | 0 mm | - | 135 W/m² | - |
| 1777642007 | 15° C | 56% | 1016.3 hPa | 0 mm | - | 132 W/m² | - |
| 1777641702 | 14.44° C | 56% | 1016.6 hPa | 0 mm | - | 125 W/m² | - |
| 1777641398 | 14.44° C | 58% | 1016.6 hPa | 0 mm | - | 110 W/m² | - |
| 1777641093 | 14.44° C | 60% | 1016.6 hPa | 0 mm | - | 122 W/m² | - |
| 1777640789 | 14.44° C | 59% | 1016.6 hPa | 0 mm | - | 113 W/m² | - |
* Rain latest hour (hover to see other rain measurements)
** Current wind speed in m/s (hover to see current wind gust speed)